Find Starlink 32750

NORAD ID: 62572 Int'l Des: 2025-006 Owner: SPXS Country: US Constellation: starlink operational
LEOCIRCULAR

当前视图

正在加载3D地球...

About Starlink 32750

Starlink 32750 (NORAD 62572) is a starlink constellation satellite (v2 mini) launched Jan 10, 2025 by SPXS of US. It operates in LEO, CIRCULAR orbit with a mass of 730.00 kg.

关于 Starlink 32750

正在加载描述...

即将过境

Passes for default location (London). Set your location on the main map for personalized predictions.

高度历史

Loading altitude history...

两行轨道根数

1 62572U 25006U 26169.10023072 .00014712 00000-0 54273-3 0 9993
2 62572 43.0027 85.1139 0002078 253.7819 106.2804 15.27600556 80229
Epoch: Jun 18, 2026 • Age: 18 hours

当前状态

高度 484.2 km
速度 7.62 km/s
星下点 -11.20°S, 58.1°E
发射日期 Jan 10, 2025
运行时间 1.4 years
类型 internet

技术详情

分类 Payload
质量 730.00 kg
干质量 700.00 kg
总质量 730.00 kg
长度 0.30 m
直径 4.10 m
跨度 29.00 m
形状 Box + pan
制造商 SPXS
平台类型 Starlink V2M
阶段状态 In Orbit
所有者/国家 SPXS/US

Most Searched